Location: Newark
(54.3386°S, 169.8415°W)
Time: 10:51:52
(UTC+00:00)

Vanguard 1 - All Passes

Search period start: 22 October 2019 00:00
Search period end: 01 November 2019 00:00
Orbit: 653 x 3830 km, 34.2° (Epoch: 20 October)

Date Brightness Start Highest point End Pass type
(mag) Time Alt. Az. Time Alt. Az. Time Alt. Az.
22 Oct - 15:41:21 10° NNW 15:54:22 22° NNE 16:04:02 10° ENE daylight
22 Oct - 18:02:04 10° NW 18:15:39 29° N 18:24:27 10° NE daylight
22 Oct - 20:26:24 10° WNW 20:35:42 22° NNW 20:42:00 10° NNE daylight
23 Oct - 13:47:32 10° NNE 13:53:39 12° NE 13:59:12 10° ENE visible
23 Oct - 16:00:29 10° NNW 16:15:05 25° NNE 16:25:28 10° ENE daylight
23 Oct - 18:22:35 10° NW 18:36:20 30° N 18:45:07 10° NE daylight
23 Oct - 20:47:39 10° WNW 20:56:05 20° NNW 21:01:58 10° NNE daylight
24 Oct - 14:03:09 10° N 14:14:09 16° NE 14:23:22 10° ENE visible
24 Oct - 16:20:08 10° NW 16:35:48 29° NNE 16:46:35 10° ENE daylight
24 Oct - 18:43:19 10° WNW 18:56:58 30° N 19:05:39 10° NE daylight
24 Oct - 21:09:12 10° WNW 21:16:21 17° NW 21:21:37 10° N daylight
25 Oct - 14:20:52 10° N 14:34:43 21° NNE 14:45:46 10° ENE visible
25 Oct - 16:40:09 10° NW 16:56:32 32° N 17:07:31 10° ENE daylight
25 Oct - 19:04:13 10° WNW 19:17:32 29° NNW 19:26:03 10° NE daylight
25 Oct - 21:31:16 10° WNW 21:36:31 14° NW 21:40:43 10° NNW daylight
26 Oct - 14:39:33 10° NNW 14:55:20 25° NNE 15:07:27 10° ENE visible
26 Oct - 17:00:29 10° NW 17:17:16 33° N 17:28:18 10° ENE daylight
26 Oct - 19:25:18 10° WNW 19:38:02 27° NNW 19:46:17 10° NNE daylight
26 Oct - 21:55:16 10° NW 21:56:34 10° NW 21:57:47 10° NW daylight
27 Oct - 12:44:46 10° NNE 12:54:20 14° NE 13:03:01 10° ENE visible
27 Oct - 14:58:51 10° NNW 15:15:59 29° NNE 15:28:48 10° ENE visible
27 Oct - 17:21:03 10° WNW 17:37:58 35° N 17:48:57 10° NE daylight
27 Oct - 19:46:32 10° WNW 19:58:24 25° NNW 20:06:19 10° NNE daylight
28 Oct - 13:01:26 10° N 13:14:42 19° NE 13:26:18 10° ENE visible
28 Oct - 15:18:35 10° NW 15:36:41 33° NNE 15:49:53 10° ENE daylight
28 Oct - 17:41:48 10° WNW 17:58:37 35° N 18:09:29 10° NE daylight
28 Oct - 20:08:01 10° WNW 20:18:40 22° NW 20:26:05 10° N daylight
29 Oct - 13:19:31 10° N 13:35:10 24° NNE 13:48:28 10° ENE visible
29 Oct - 15:38:40 10° NW 15:57:24 35° N 16:10:48 10° ENE daylight
29 Oct - 18:02:44 10° WNW 18:19:12 34° NNW 18:29:54 10° NE daylight
29 Oct - 20:29:49 10° WNW 20:38:50 18° NW 20:45:27 10° N daylight
30 Oct - 11:29:36 10° NE 11:34:29 11° NE 11:39:17 10° ENE visible
30 Oct - 13:38:23 10° NNW 13:55:40 28° NNE 14:10:06 10° ENE visible
30 Oct - 15:59:01 10° NW 16:18:08 37° N 16:31:35 10° ENE daylight
30 Oct - 18:23:48 10° WNW 18:39:43 32° NNW 18:50:08 10° NE daylight
30 Oct - 20:52:16 10° WNW 20:58:51 14° NW 21:04:07 10° NNW daylight
31 Oct - 11:43:37 10° NNE 11:54:37 16° NE 12:05:08 10° ENE visible
31 Oct - 13:57:47 10° NNW 14:16:16 32° NNE 14:31:24 10° ENE visible
31 Oct - 16:19:36 10° WNW 16:38:51 38° N 16:52:15 10° ENE daylight
31 Oct - 18:45:03 10° WNW 19:00:07 29° NNW 19:10:12 10° NNE daylight
31 Oct - 21:17:08 10° WNW 21:18:45 10° NW 21:20:16 10° NW daylight
